Back to catalog

JIELONG-3 R/B

AliveSciencePO
NORAD 68690·ROCKET BODY·🇨🇳 China

Launched Apr 11, 2026 from South China Sea Launch Area

Loading…

Next Passes (next 24 hours)

TLE

FreshSource: Space-Track

Epoch: Sep 14, 2026, 23:13 UTC

1 68690U 26078C   26257.96739283  .00004540  00000-0  20474-3 0  9994
2 68690  86.6398 241.8948 0434668 208.2308 149.4725 14.63845801 22861

Track JIELONG-3 R/B in real time with AllMySat

Download on the App Store